| time (UTC) | temp C | wind direction | speed KPH | gust KPH | rain 1hr cm | rain 24hr cm | rain mn cm | humidity % | barometer mb |
| 20260901113019 | 22 | 279 | 1.6 | 17.7 | 0.00 | 0.13 | 0.00 | 54 | 1019.6 |
| 20260901111515 | 22 | 285 | 0.0 | 24.1 | 0.00 | 0.13 | 0.00 | 54 | 1019.6 |
| 20260901110013 | 22 | 281 | 1.6 | 20.9 | 0.00 | 0.13 | 0.00 | 56 | 1019.7 |
| 20260901104510 | 21 | 306 | 1.6 | 30.6 | 0.00 | 0.13 | 0.00 | 59 | 1019.8 |
| 20260901103009 | 21 | 270 | 4.8 | 22.5 | 0.00 | 0.13 | 0.00 | 59 | 1019.8 |
| 20260901101507 | 21 | 298 | 14.5 | 24.1 | 0.00 | 0.13 | 0.00 | 59 | 1019.8 |
| 20260901100008 | 20 | 260 | 6.4 | 19.3 | 0.00 | 0.13 | 0.00 | 61 | 1019.8 |
| 20260901094505 | 20 | 271 | 4.8 | 19.3 | 0.00 | 0.13 | 0.00 | 62 | 1019.8 |
| 20260901093012 | 20 | 308 | 4.8 | 16.1 | 0.00 | 0.13 | 0.00 | 64 | 1019.9 |
| 20260901091502 | 20 | 312 | 8.0 | 16.1 | 0.00 | 0.13 | 0.00 | 65 | 1019.9 |
| 20260901084559 | 20 | 296 | 1.6 | 12.9 | 0.00 | 0.13 | 0.00 | 69 | 1019.9 |
| 20260901083052 | 19 | 301 | 0.0 | 0.0 | 0.00 | 0.13 | 0.00 | 73 | 1019.8 |
| 20260901081552 | 19 | 301 | 0.0 | 0.0 | 0.00 | 0.13 | 0.00 | 76 | 1019.8 |
| 20260901080048 | 19 | 301 | 0.0 | 0.0 | 0.00 | 0.13 | 0.00 | 77 | 1019.8 |
| 20260901074545 | 18 | 300 | 0.0 | 0.0 | 0.00 | 0.13 | 0.00 | 78 | 1019.8 |
| 20260901073042 | 17 | 244 | 0.0 | 0.0 | 0.00 | 0.13 | 0.00 | 80 | 1019.7 |
| 20260901071540 | 17 | 244 | 0.0 | 0.0 | 0.00 | 0.13 | 0.00 | 81 | 1019.5 |
| 20260901070053 | 17 | 244 | 0.0 | 0.0 | 0.00 | 0.13 | 0.00 | 81 | 1019.6 |
| 20260901064535 | 16 | 243 | 0.0 | 0.0 | 0.00 | 0.13 | 0.00 | 85 | 1019.6 |
| 20260901063032 | 16 | 244 | 0.0 | 0.0 | 0.00 | 0.13 | 0.00 | 85 | 1019.5 |
| 20260901061527 | 14 | 244 | 0.0 | 0.0 | 0.00 | 0.13 | 0.00 | 90 | 1019.5 |
| 20260901060022 | 13 | 243 | 0.0 | 0.0 | 0.00 | 0.13 | 0.00 | 92 | 1019.5 |
| 20260901054520 | 12 | 243 | 0.0 | 0.0 | 0.00 | 0.13 | 0.00 | 93 | 1019.4 |
| 20260901053019 | 12 | 243 | 0.0 | 0.0 | 0.00 | 0.13 | 0.00 | 93 | 1019.4 |
| 20260901051512 | 12 | 243 | 0.0 | 0.0 | 0.00 | 0.13 | 0.00 | 93 | 1019.4 |
| 20260901050010 | 12 | 243 | 0.0 | 0.0 | 0.00 | 0.13 | 0.00 | 92 | 1019.5 |
| 20260901044507 | 12 | 243 | 0.0 | 0.0 | 0.00 | 0.20 | 0.00 | 92 | 1019.3 |
| 20260901043046 | 12 | 243 | 0.0 | 0.0 | 0.00 | 0.20 | 0.00 | 92 | 1019.3 |
| 20260901041545 | 12 | 243 | 0.0 | 0.0 | 0.00 | 0.20 | 0.00 | 92 | 1019.2 |
| 20260901040043 | 12 | 243 | 0.0 | 0.0 | 0.00 | 0.20 | 0.00 | 92 | 1019.2 |
| 20260901034550 | 12 | 243 | 0.0 | 0.0 | 0.00 | 0.20 | 0.00 | 92 | 1019.1 |
| 20260901033045 | 13 | 243 | 0.0 | 0.0 | 0.00 | 0.20 | 0.00 | 92 | 1019.0 |
| 20260901031546 | 13 | 243 | 0.0 | 0.0 | 0.00 | 0.20 | 0.00 | 92 | 1019.0 |
| 20260901030038 | 13 | 243 | 0.0 | 0.0 | 0.00 | 0.20 | 0.00 | 92 | 1019.1 |
| 20260901024538 | 13 | 243 | 0.0 | 0.0 | 0.00 | 0.20 | 0.00 | 92 | 1019.0 |
| 20260901023041 | 13 | 243 | 0.0 | 0.0 | 0.00 | 0.20 | 0.00 | 92 | 1019.0 |
| 20260901021541 | 13 | 243 | 0.0 | 0.0 | 0.00 | 0.20 | 0.00 | 92 | 1019.0 |
| 20260901020055 | 13 | 243 | 0.0 | 0.0 | 0.00 | 0.20 | 0.00 | 91 | 1018.9 |
| 20260901014631 | 13 | 243 | 0.0 | 0.0 | 0.00 | 0.23 | 0.00 | 91 | 1018.8 |
| 20260901013029 | 13 | 243 | 0.0 | 0.0 | 0.00 | 0.23 | 0.00 | 91 | 1018.8 |
| 20260901011536 | 13 | 243 | 0.0 | 0.0 | 0.00 | 0.23 | 0.00 | 91 | 1018.6 |
| 20260901010028 | 13 | 243 | 0.0 | 0.0 | 0.00 | 0.23 | 0.00 | 91 | 1018.7 |
| 20260901004526 | 13 | 243 | 0.0 | 0.0 | 0.00 | 0.51 | 0.00 | 91 | 1018.6 |
| 20260901003026 | 13 | 243 | 0.0 | 0.0 | 0.00 | 0.51 | 0.00 | 91 | 1018.4 |
| 20260901001527 | 13 | 243 | 0.0 | 0.0 | 0.00 | 0.51 | 0.00 | 91 | 1018.4 |
| 20260901000022 | 13 | 243 | 0.0 | 0.0 | 0.00 | 0.51 | 0.00 | 91 | 1018.4 |
| 20260831234521 | 13 | 243 | 0.0 | 0.0 | 0.00 | 0.51 | 0.00 | 91 | 1018.2 |
| 20260831233034 | 13 | 243 | 0.0 | 0.0 | 0.00 | 0.51 | 0.00 | 91 | 1018.1 |
| 20260831231519 | 13 | 243 | 0.0 | 0.0 | 0.00 | 0.51 | 0.00 | 91 | 1018.1 |
| 20260831230019 | 13 | 243 | 0.0 | 0.0 | 0.00 | 0.51 | 0.00 | 90 | 1018.1 |
| 20260831224517 | 13 | 243 | 0.0 | 0.0 | 0.00 | 0.51 | 0.00 | 91 | 1018.1 |
| 20260831223017 | 13 | 243 | 0.0 | 0.0 | 0.00 | 0.51 | 0.00 | 90 | 1018.2 |
| 20260831221513 | 14 | 243 | 0.0 | 0.0 | 0.00 | 0.51 | 0.00 | 90 | 1018.1 |
| 20260831220016 | 14 | 243 | 0.0 | 0.0 | 0.00 | 0.51 | 0.00 | 90 | 1018.0 |
| 20260831214516 | 14 | 243 | 0.0 | 0.0 | 0.00 | 0.51 | 0.51 | 90 | 1017.8 |
| 20260831213009 | 14 | 243 | 0.0 | 0.0 | 0.00 | 0.51 | 0.51 | 90 | 1017.8 |
| 20260831211508 | 14 | 243 | 0.0 | 0.0 | 0.00 | 0.51 | 0.51 | 89 | 1017.6 |
| 20260831210004 | 15 | 243 | 0.0 | 0.0 | 0.00 | 0.51 | 0.51 | 88 | 1017.4 |
| 20260831204505 | 15 | 243 | 0.0 | 0.0 | 0.00 | 0.51 | 0.51 | 88 | 1017.3 |
| 20260831203059 | 15 | 243 | 0.0 | 0.0 | 0.00 | 0.51 | 0.51 | 86 | 1017.2 |
| 20260831201600 | 16 | 244 | 0.0 | 0.0 | 0.00 | 0.51 | 0.51 | 83 | 1016.9 |
| 20260831200057 | 17 | 243 | 0.0 | 8.0 | 0.00 | 0.51 | 0.51 | 79 | 1016.9 |
| 20260831194631 | 17 | 235 | 0.0 | 14.5 | 0.00 | 0.51 | 0.51 | 79 | 1017.0 |
| 20260831193056 | 17 | 248 | 0.0 | 14.5 | 0.00 | 0.51 | 0.51 | 80 | 1017.0 |
| 20260831191554 | 16 | 232 | 0.0 | 6.4 | 0.00 | 0.51 | 0.51 | 86 | 1016.8 |
| 20260831184611 | 16 | 260 | 0.0 | 0.0 | 0.00 | 0.51 | 0.51 | 86 | 1016.5 |
| 20260831183100 | 16 | 260 | 0.0 | 0.0 | 0.03 | 0.51 | 0.51 | 84 | 1016.3 |
| 20260831181549 | 17 | 260 | 0.0 | 0.0 | 0.03 | 0.51 | 0.51 | 82 | 1016.1 |
| 20260831180047 | 17 | 260 | 0.0 | 12.9 | 0.03 | 0.51 | 0.51 | 81 | 1015.8 |
| 20260831174550 | 17 | 223 | 0.0 | 11.3 | 0.03 | 0.51 | 0.51 | 84 | 1015.8 |
| 20260831173057 | 17 | 268 | 0.0 | 0.0 | 0.00 | 0.51 | 0.51 | 85 | 1016.0 |
| 20260831171543 | 17 | 268 | 0.0 | 0.0 | 0.03 | 0.51 | 0.51 | 84 | 1015.5 |
| 20260831170042 | 17 | 268 | 0.0 | 0.0 | 0.10 | 0.51 | 0.51 | 82 | 1015.4 |
| 20260831164543 | 17 | 268 | 0.0 | 19.3 | 0.10 | 0.51 | 0.51 | 82 | 1015.4 |
| 20260831163050 | 17 | 277 | 9.7 | 20.9 | 0.10 | 0.51 | 0.51 | 81 | 1015.5 |
| 20260831161540 | 18 | 290 | 11.3 | 49.9 | 0.08 | 0.48 | 0.48 | 76 | 1015.5 |
| 20260831160034 | 22 | 328 | 9.7 | 25.7 | 0.00 | 0.41 | 0.41 | 57 | 1014.7 |
| 20260831154535 | 22 | 236 | 12.9 | 27.4 | 0.00 | 0.41 | 0.41 | 54 | 1014.4 |
| 20260831153033 | 22 | 284 | 4.8 | 20.9 | 0.00 | 0.41 | 0.41 | 60 | 1014.2 |
| 20260831151533 | 22 | 252 | 0.0 | 14.5 | 0.00 | 0.41 | 0.41 | 56 | 1014.3 |
| 20260831150032 | 22 | 278 | 1.6 | 19.3 | 0.00 | 0.41 | 0.41 | 55 | 1014.3 |
| 20260831144546 | 23 | 254 | 3.2 | 35.4 | 0.00 | 0.41 | 0.41 | 54 | 1014.0 |
| 20260831143039 | 22 | 279 | 16.1 | 30.6 | 0.00 | 0.41 | 0.41 | 55 | 1014.1 |
| 20260831141530 | 23 | 284 | 8.0 | 38.6 | 0.00 | 0.41 | 0.41 | 51 | 1013.9 |
| 20260831140029 | 23 | 284 | 9.7 | 22.5 | 0.00 | 0.41 | 0.41 | 52 | 1013.8 |
| 20260831134530 | 23 | 258 | 1.6 | 19.3 | 0.00 | 0.41 | 0.41 | 52 | 1014.1 |
| 20260831133030 | 23 | 298 | 9.7 | 20.9 | 0.00 | 0.41 | 0.41 | 52 | 1014.1 |
| 20260831131528 | 22 | 291 | 11.3 | 24.1 | 0.00 | 0.41 | 0.41 | 57 | 1014.3 |
| 20260831130027 | 23 | 302 | 8.0 | 30.6 | 0.00 | 0.41 | 0.41 | 55 | 1014.3 |
| 20260831124516 | 23 | 232 | 9.7 | 38.6 | 0.00 | 0.41 | 0.41 | 49 | 1014.4 |
| 20260831123015 | 23 | 263 | 12.9 | 32.2 | 0.00 | 0.41 | 0.41 | 50 | 1014.4 |
| 20260831121519 | 22 | 243 | 4.8 | 24.1 | 0.00 | 0.41 | 0.41 | 54 | 1014.5 |
| 20260831120018 | 23 | 252 | 11.3 | 35.4 | 0.00 | 0.41 | 0.41 | 54 | 1014.5 |
| 20260831114509 | 23 | 236 | 8.0 | 25.7 | 0.00 | 0.41 | 0.41 | 55 | 1014.6 |